Zurück zum Katalog

DALINGHAOWAN

AktivWissenschaftSSO
NORAD 63993·PAYLOAD·🇨🇳 China
Dieser Satellitenname wurde noch nicht durch offizielle Quellen bestätigt.

Gestartet May 14, 2025 von Jiuquan Satellite Launch Center

Loading…

Nächste Überflüge (nächste 24 Stunden)

TLE

AktuellSource: Space-Track

Epoche: Sep 14, 2026, 15:11 UTC

1 63993U 25100M   26257.63294868  .00015918  00000-0  56518-3 0  9998
2 63993  97.3587 333.7290 0005319  16.4835 343.6577 15.29107805 74568

Verfolge DALINGHAOWAN in Echtzeit mit AllMySat

Download on the App Store